When you browse on this site, cookies collect data to enhance your experience and personalize the content and advertising you see.
Visit our Privacy Policy to learn more. By continuing to use the site, you agree to this use of cookies and data.
  • In Hungary
  • List of Countries
  • For 7 days
  • Water Temperature
  • Weather Map
  • News
  • Weather Widgets
  • user-avatar
    Login

    Hourly Weather Kajkowo

    Today, 15 September, Sunday

    Time Temperature Precipitation Wind Pressure Humidity
    00:00 +9°C° 0 mm 3 mps 758 mmHg 85%
    01:00 +9°C° 0 mm 3 mps 757 mmHg 86%
    02:00 +9°C° 0 mm 3 mps 757 mmHg 85%
    03:00 +9°C° 0 mm 3 mps 756 mmHg 84%
    04:00 +8°C° 0 mm 4 mps 756 mmHg 83%
    05:00 +8°C° 0 mm 4 mps 755 mmHg 77%
    06:00 +9°C° 0 mm 5 mps 755 mmHg 72%
    07:00 +10°C° 0 mm 6 mps 754 mmHg 67%
    08:00 +13°C° 0 mm 6 mps 753 mmHg 61%
    09:00 +14°C° 0 mm 7 mps 753 mmHg 56%
    10:00 +16°C° 0 mm 8 mps 752 mmHg 51%
    11:00 +16°C° 0 mm 8 mps 751 mmHg 49%
    12:00 +17°C° 0 mm 8 mps 751 mmHg 47%
    13:00 +18°C° 0 mm 8 mps 750 mmHg 45%
    14:00 +18°C° 0 mm 7 mps 749 mmHg 46%
    15:00 +18°C° 0 mm 7 mps 749 mmHg 47%
    16:00 +19°C° 0 mm 6 mps 748 mmHg 48%
    17:00 +19°C° 0 mm 6 mps 748 mmHg 49%
    18:00 +17°C° 0 mm 6 mps 748 mmHg 50%
    19:00 +17°C° 0 mm 5 mps 747 mmHg 52%
    20:00 +16°C° 0 mm 6 mps 747 mmHg 58%
    21:00 +16°C° 0 mm 6 mps 747 mmHg 64%
    22:00 +15°C° 0 mm 6 mps 747 mmHg 71%
    23:00 +15°C° 0 mm 6 mps 747 mmHg 71%

    Tomorrow, 16 September, Monday

    Time Temperature Precipitation Wind Pressure Humidity
    00:00 +14°C° 0 mm 6 mps 747 mmHg 71%
    01:00 +14°C° 0 mm 5 mps 747 mmHg 71%
    02:00 +13°C° 0 mm 5 mps 747 mmHg 72%
    03:00 +12°C° 0 mm 5 mps 747 mmHg 73%
    04:00 +10°C° 0 mm 6 mps 747 mmHg 74%
    05:00 +10°C° 0 mm 6 mps 747 mmHg 72%
    06:00 +10°C° 0 mm 6 mps 747 mmHg 70%
    07:00 +11°C° 0 mm 7 mps 747 mmHg 68%
    08:00 +11°C° 0 mm 7 mps 747 mmHg 65%
    09:00 +12°C° 0 mm 7 mps 747 mmHg 62%
    10:00 +14°C° 0 mm 7 mps 747 mmHg 59%
    11:00 +14°C° 0 mm 7 mps 747 mmHg 58%
    12:00 +14°C° 0 mm 7 mps 747 mmHg 57%
    13:00 +14°C° 0 mm 7 mps 747 mmHg 56%
    14:00 +14°C° 0 mm 6 mps 746 mmHg 57%
    15:00 +14°C° 0 mm 6 mps 746 mmHg 57%
    16:00 +14°C° 0 mm 6 mps 746 mmHg 57%
    17:00 +13°C° 0 mm 5 mps 746 mmHg 61%
    18:00 +10°C° 0 mm 5 mps 746 mmHg 65%
    19:00 +10°C° 0 mm 4 mps 745 mmHg 70%
    20:00 +10°C° 0 mm 4 mps 745 mmHg 70%
    21:00 +9°C° 0 mm 5 mps 745 mmHg 70%
    22:00 +9°C° 0 mm 5 mps 745 mmHg 70%
    23:00 +9°C° 0 mm 5 mps 745 mmHg 72%

    Day after tomorrow, 17 September, Tuesday

    Time Temperature Precipitation Wind Pressure Humidity
    00:00 +8°C° 0 mm 5 mps 745 mmHg 74%
    01:00 +8°C° 0 mm 5 mps 744 mmHg 77%
    02:00 +8°C° 0 mm 5 mps 744 mmHg 78%
    03:00 +8°C° 0 mm 5 mps 744 mmHg 79%
    04:00 +8°C° 0 mm 6 mps 744 mmHg 80%
    05:00 +8°C° 0 mm 6 mps 744 mmHg 78%
    06:00 +9°C° 0 mm 7 mps 743 mmHg 77%
    07:00 +9°C° 0 mm 7 mps 743 mmHg 75%
    08:00 +10°C° 0.2 mm 7 mps 743 mmHg 70%
    09:00 +11°C° 0.2 mm 8 mps 743 mmHg 66%
    10:00 +12°C° 0.2 mm 8 mps 743 mmHg 61%
    11:00 +11°C° 0.5 mm 8 mps 742 mmHg 65%
    12:00 +10°C° 0.5 mm 8 mps 742 mmHg 70%
    13:00 +10°C° 0.5 mm 8 mps 741 mmHg 74%
    14:00 +9°C° 0.5 mm 8 mps 741 mmHg 72%
    15:00 +9°C° 0.5 mm 8 mps 741 mmHg 70%
    16:00 +9°C° 0.5 mm 7 mps 741 mmHg 68%
    17:00 +8°C° 0.1 mm 7 mps 740 mmHg 71%
    18:00 +6°C° 0.1 mm 7 mps 740 mmHg 74%
    19:00 +5°C° 0.1 mm 6 mps 740 mmHg 77%
    20:00 +5°C° 0.1 mm 6 mps 741 mmHg 78%
    21:00 +5°C° 0.1 mm 7 mps 741 mmHg 79%
    22:00 +5°C° 0.1 mm 7 mps 741 mmHg 80%
    23:00 +5°C° 0.1 mm 7 mps 741 mmHg 82%

    18 September, Wednesday

    Time Temperature Precipitation Wind Pressure Humidity
    00:00 +5°C° 0.1 mm 6 mps 742 mmHg 84%
    01:00 +5°C° 0.1 mm 6 mps 742 mmHg 85%
    02:00 +5°C° 1 mm 6 mps 742 mmHg 86%
    03:00 +5°C° 1 mm 6 mps 743 mmHg 87%
    04:00 +5°C° 1 mm 6 mps 743 mmHg 87%
    05:00 +7°C° 0.1 mm 6 mps 744 mmHg 85%
    06:00 +7°C° 0.1 mm 6 mps 744 mmHg 83%
    07:00 +7°C° 0.1 mm 6 mps 745 mmHg 81%
    08:00 +9°C° 0.1 mm 7 mps 745 mmHg 75%
    09:00 +10°C° 0.1 mm 7 mps 746 mmHg 69%
    10:00 +11°C° 0.1 mm 7 mps 746 mmHg 63%
    11:00 +11°C° 0.3 mm 7 mps 747 mmHg 62%
    12:00 +11°C° 0.3 mm 7 mps 747 mmHg 62%
    13:00 +11°C° 0.3 mm 7 mps 747 mmHg 62%
    14:00 +11°C° 0.3 mm 7 mps 747 mmHg 63%
    15:00 +11°C° 0.3 mm 6 mps 748 mmHg 64%
    16:00 +11°C° 0.3 mm 6 mps 748 mmHg 65%
    17:00 +9°C° 0.1 mm 5 mps 748 mmHg 72%
    18:00 +8°C° 0.1 mm 4 mps 749 mmHg 79%
    19:00 +8°C° 0.1 mm 3 mps 749 mmHg 86%
    20:00 +7°C° 0 mm 3 mps 749 mmHg 86%
    21:00 +7°C° 0 mm 2 mps 749 mmHg 86%
    22:00 +6°C° 0 mm 2 mps 750 mmHg 86%
    23:00 +5°C° 0 mm 3 mps 750 mmHg 87%

    19 September, Thursday

    Time Temperature Precipitation Wind Pressure Humidity
    00:00 +5°C° 0 mm 3 mps 750 mmHg 87%
    01:00 +4°C° 0 mm 3 mps 750 mmHg 88%
    02:00 +4°C° 0 mm 3 mps 750 mmHg 88%
    03:00 +4°C° 0 mm 3 mps 750 mmHg 88%
    04:00 +4°C° 0 mm 3 mps 750 mmHg 89%
    05:00 +5°C° 0 mm 3 mps 750 mmHg 85%
    06:00 +6°C° 0 mm 4 mps 750 mmHg 82%
    07:00 +6°C° 0 mm 4 mps 750 mmHg 79%
    08:00 +8°C° 0.2 mm 4 mps 751 mmHg 73%
    09:00 +10°C° 0.2 mm 5 mps 751 mmHg 68%
    10:00 +12°C° 0.2 mm 5 mps 751 mmHg 63%
    11:00 +11°C° 0.3 mm 6 mps 752 mmHg 61%
    12:00 +11°C° 0.3 mm 6 mps 752 mmHg 59%
    13:00 +11°C° 0.3 mm 6 mps 752 mmHg 57%
    14:00 +11°C° 0.1 mm 6 mps 752 mmHg 56%
    15:00 +10°C° 0.1 mm 6 mps 752 mmHg 56%
    16:00 +10°C° 0.1 mm 6 mps 752 mmHg 56%
    17:00 +8°C° 0 mm 6 mps 753 mmHg 61%
    18:00 +7°C° 0 mm 5 mps 753 mmHg 66%
    19:00 +6°C° 0 mm 5 mps 753 mmHg 72%
    20:00 +6°C° 0.7 mm 5 mps 753 mmHg 76%
    21:00 +6°C° 0.7 mm 5 mps 754 mmHg 81%
    22:00 +6°C° 0.7 mm 5 mps 754 mmHg 85%
    23:00 +6°C° 0.2 mm 4 mps 754 mmHg 86%

    20 September, Friday

    Time Temperature Precipitation Wind Pressure Humidity
    00:00 +5°C° 0.2 mm 4 mps 755 mmHg 88%
    01:00 +5°C° 0.2 mm 3 mps 755 mmHg 89%
    02:00 +4°C° 0 mm 3 mps 755 mmHg 90%
    03:00 +4°C° 0 mm 3 mps 755 mmHg 91%
    04:00 +4°C° 0 mm 2 mps 756 mmHg 91%
    05:00 +5°C° 0 mm 2 mps 756 mmHg 89%
    06:00 +5°C° 0 mm 3 mps 756 mmHg 87%
    07:00 +7°C° 0 mm 3 mps 757 mmHg 85%
    08:00 +8°C° 0.1 mm 3 mps 757 mmHg 77%
    09:00 +10°C° 0.1 mm 4 mps 757 mmHg 69%
    10:00 +10°C° 0.1 mm 5 mps 758 mmHg 61%
    11:00 +11°C° 0.1 mm 4 mps 758 mmHg 60%
    12:00 +11°C° 0.1 mm 4 mps 757 mmHg 59%
    13:00 +11°C° 0.1 mm 4 mps 757 mmHg 58%
    14:00 +12°C° 0 mm 4 mps 757 mmHg 56%
    15:00 +12°C° 0 mm 4 mps 757 mmHg 53%
    16:00 +12°C° 0 mm 3 mps 757 mmHg 51%
    17:00 +10°C° 0 mm 3 mps 756 mmHg 56%
    18:00 +9°C° 0 mm 3 mps 756 mmHg 61%
    19:00 +7°C° 0 mm 2 mps 756 mmHg 66%
    20:00 +8°C° 0 mm 3 mps 756 mmHg 64%
    21:00 +7°C° 0 mm 4 mps 755 mmHg 62%
    22:00 +8°C° 0 mm 4 mps 755 mmHg 60%
    23:00 +8°C° 0 mm 5 mps 754 mmHg 62%
    Show more